sat.trackr.live / text

‹ back to catalog

STARLINK-34278

NORAD 64391 · 2025-127X

PAYLOAD ACTIVE UNKNOWN

§ Identity

Operator
Country
US
Launch date
2025-06-13
Launch site
AFETR
Launch vehicle
Mass (kg)
RCS (m²)

Purposes: comms

External: N2YO · Heavens-Above · Gunter

§ Orbital elements

Epoch: 2026-05-24T22:49:08.294880Z

Period
94.27 min
Inclination
42.9965°
Eccentricity
0.0001274
Mean motion
15.27599059 rev/d
Perigee alt
482.1 km
Apogee alt
483.9 km
Semi-major
6,861.1 km
B*
5.8638e-4
RAAN
108.7952°
Arg perigee
170.4115°
Mean anomaly
189.6761°
Rev number
5,413

§ Raw data

STARLINK-342781 64391U 25127X   26144.95079045  .00015918  00000+0  58638-3 0  99922 64391  42.9965 108.7952 0001274 170.4115 189.6761 15.27599059 54138

JSON: /api/v1/satellites/64391 · /tle

For live sub-satellite position, see the globe view (requires WebGL).

§ Visibility from observer

Set your observer location to see the next 7 days of passes ≥ 10°. The values pass through the URL so the page stays shareable.

No JS? Fill the form by hand. The geolocation button needs JavaScript.